FENGYUN 1C DEB, 30273

Orbit data source: Space-Track

FENGYUN 1C DEB, 30273 is space debris in SSO originally from a launch on Mon, 10 May 1999 UTC launched from the Taiyaun Space Center, China (TSC). Fengyun 1C debris stems from the Chinese weather satellite Fengyun-1C, which was intentionally destroyed by a Chinese anti-satellite missile in 2007. This event dramatically increased the amount of space debris, with thousands of trackable fragments posing hazards to satellites and human spaceflight. The Fengyun 1C debris cloud has become a focal point in discussions about space sustainability and the need for international regulations to prevent the creation of new debris.

Loading next visibility...
Identifier
30273, 1999-025YJ
Orbit
SSO
Country
Flag of CNCN / PRC
Related business
Manufacturer
Unknown
Mission
Spacecraft
Bus & Motor
Unknown
Mass
Unknown
Launch date (UTC)
1999-05-10 (27 years ago)
Launch vehicle
Unknown
Launch site
Taiyaun Space Center, China (TSC)
Object type
Payload
Rocket body
Debris
Shape & HBR
Unknown shape, 0.2 m
Radar Cross Section
Small (<0.1 m²)

Expand to show TLE details & history
Last TLE update: 5 hours ago

TLE from 5 hours ago
0 FENGYUN 1C DEB
1 30273U 99025YJ  26071.32952514  .00001360  00000-0  89185-3 0  9991
2 30273  98.8371  88.2593 0060727   1.1007  15.0822 14.02840850977855
Epoch: 2026-03-12T07:54Z
TLE epoch observation values (Epoch: 2026-03-12T07:54:30.972Z)
Latitude
16.14815°
Longitude
157.08283°
Altitude
843.631 km
Speed
7.454 km/s
True Right ascension
05h 42m 46s
True Declination
16° 03' 27"
Sunlit
Object was in daylight at epoch
Visualization orbit readout
Latitude
Unknown
Longitude
Unknown
Altitude
Unknown
Speed
Unknown
Apparent Right ascension
Unknown
Apparent Declination
Unknown
Sunlit
N/A
Visualization observer readout
Local Sidereal Time
17:03:24
Azimuth
Unknown
Elevation
Unknown
Doppler factor
Unknown
Orbital elements
Apogee altitude
925.245 km
Perigee altitude
837.078 km
Semi-major axis
7,259.299 km
Eccentricity
0.00607
Inclination
98.8371°
RAAN
88.2593°
Arg. of periapsis
1.1007°
True anomaly
15.26461°
Mean anomaly
15.0822°
Eccentric anomaly
15.17327°
Mean motion
3.50914 °/min
Orbital period
102.59 mins
BSTAR
0.00089185
Loading maneuver chart data...
Computing Atmospheric mass density...

Documentation

Showing up to 5 results
|